Regional Weather Roundup
Issued by NWS

Home | Current Version | Previous Version | Graphics & Text | Print | Product List | Glossary Off
Versions: 1 2 3 4 5 6 7 8 9 10 11 12 13 14 15 16 17 18 19 20 21 22 23 24 25 26 27 28 29 30 31 32 33 34 35 36 37 38 39 40 41 42 43 44 45 46 47 48 49 50

000
ASUS43 KTOP 021759
RWRKS

WEATHER ROUNDUP FOR KANSAS
NATIONAL WEATHER SERVICE GOODLAND KS
1200 PM CST MON MAR 02 2015

NOTE:  "FAIR" INDICATES FEW OR NO CLOUDS BELOW 12,000 FEET WITH NO
SIGNIFICANT WEATHER AND/OR OBSTRUCTIONS TO VISIBILITY.

KSZ001>006-013>018-027>032-041>047-021900-
NORTHWEST KANSAS

CITY           SKY/WX    TMP DP  RH WIND       PRES   REMARKS
GOODLAND       CLOUDY    28  21  75 S25       30.07F WCI  13
6HR MIN TEMP:  22; 6HR MAX TEMP:  28;

HAYS           CLOUDY    34  16  47 S24       30.27F WCI  21
HILL CITY      PTSUNNY   34  20  56 S21       30.23F WCI  22
6HR MIN TEMP:  23; 6HR MAX TEMP:  34;

RUSSELL        CLOUDY    34  19  54 S24G30    30.29F WCI  21
6HR MIN TEMP:  21; 6HR MAX TEMP:  34;

$$

KSZ061>065-074>080-084>089-021900-
SOUTHWEST KANSAS

CITY           SKY/WX    TMP DP  RH WIND       PRES   REMARKS
DODGE CITY     CLOUDY    30  21  69 S15G24    30.25F WCI  19
6HR MIN TEMP:  21; 6HR MAX TEMP:  30;

ELKHART          N/A     31  23  72 S17         N/A  WCI  19
GARDEN CITY    CLOUDY    28  23  81 S20G29    30.18F WCI  15
6HR MIN TEMP:  20; 6HR MAX TEMP:  29;

GREAT BEND     CLOUDY    34  19  55 S18       30.31F WCI  23
LIBERAL        CLOUDY    30  25  80 S18       30.22F WCI  18
$$

KSZ066>073-081>083-090>101-021900-
SOUTHEAST KANSAS

CITY           SKY/WX    TMP DP  RH WIND       PRES   REMARKS
CHANUTE        CLOUDY    36  21  54 E14G22    30.39F WCI  27
6HR MIN TEMP:  18; 6HR MAX TEMP:  36;

COFFEYVILLE    PTSUNNY   38  22  52 E13G22    30.39F WCI  30
6HR MIN TEMP:  22; 6HR MAX TEMP:  38;

HUTCHINSON     CLOUDY    35  22  58 SE14      30.35F WCI  26
6HR MIN TEMP:  22; 6HR MAX TEMP:  35;

MEDICINE LODGE   N/A     31  21  66 S8        30.33F
NEWTON         CLOUDY    32  19  59 S13       30.38S WCI  22
PARSONS        PTSUNNY   37  20  50 E7G20     30.38F
6HR MIN TEMP:  21; 6HR MAX TEMP:  38;

WICHITA INTL   CLOUDY    33  19  56 SE10      30.36F WCI  25
6HR MIN TEMP:  19; 6HR MAX TEMP:  33;

WICHITA JABRA  CLOUDY    33  19  56 SE14G20   30.36F WCI  23
6HR MIN TEMP:  19; 6HR MAX TEMP:  33;

WINFIELD       PTSUNNY   34  20  56 E13       30.35F WCI  25
6HR MIN TEMP:  16; 6HR MAX TEMP:  35;

$$

KSZ007>012-019>026-033>040-048>060-102>105-021900-
NORTHEAST KANSAS

CITY           SKY/WX    TMP DP  RH WIND       PRES   REMARKS
EMPORIA        PTSUNNY   35  22  58 SE14      30.37F WCI  26
6HR MIN TEMP:  19; 6HR MAX TEMP:  35;

LAWRENCE       PTSUNNY   38  22  52 SE17      30.42F WCI  28
6HR MIN TEMP:  17; 6HR MAX TEMP:  39;

MANHATTAN      MOSUNNY   39  21  48 SE15      30.38F WCI  31
6HR MIN TEMP:  19; 6HR MAX TEMP:  39;

OLATHE IND     PTSUNNY   34  21  59 E14       30.41F WCI  25
6HR MIN TEMP:  20; 6HR MAX TEMP:  34; 6HR PCP: TRACE;

OLATHE EXE     PTSUNNY   36  21  54 SE13      30.41F WCI  27
6HR MIN TEMP:  20; 6HR MAX TEMP:  36;

SALINA         PTSUNNY   38  20  48 S15       30.36F WCI  29
6HR MIN TEMP:  22; 6HR MAX TEMP:  40;

TOPEKA BILLARD PTSUNNY   38  22  52 SE16      30.42F WCI  29
6HR MIN TEMP:  20; 6HR MAX TEMP:  38;

TOPEKA FORBES  PTSUNNY   37  21  52 SE13      30.39F WCI  29
6HR MIN TEMP:  19; 6HR MAX TEMP:  38;

$$



USA.gov is the U.S. government's official web portal to all federal, state and local government web resources and services.